Weather History for Rome Ciampino, Italy

Change the Weather History Date:

Monday, February 20, 2012

  Actual Average Record
Temperature  
Mean Temperature 50 °F -  
Max Temperature 53 °F 58 °F 69 °F (2004)
Min Temperature 46 °F 40 °F 28 °F (2003)
Degree Days  
Heating Degree Days 16    
Moisture  
Dew Point 45 °F    
Average Humidity 86    
Maximum Humidity 100    
Minimum Humidity 71    
Precipitation  
Precipitation 0.00 in 0.10 in - ()
Sea Level Pressure  
Sea Level Pressure 30.12 in    
Wind  
Wind Speed 7 mph ()    
Max Wind Speed 17 mph    
Max Gust Speed 29 mph    
Visibility 5.6 miles    
Events Rain , Thunderstorm    
Averages and records for this station are not official NWS values.
T = Trace of Precipitation, MM = Missing Value Source: Averaged Metar Reports

Daily Weather History Graph

Daily Weather History Graph

Search for Another Location

Airport:

Trip Planner

Search our weather history database for the weather conditions in past years. The results will help you decide how hot, cold, wet, or windy it might be!

Date:

Astronomy

Feb. 20, 2012 Rise Set
Actual Time 6:59 AM CET 5:48 PM CET
Civil Twilight 6:31 AM CET 6:16 PM CET
Nautical Twilight 5:58 AM CET 6:48 PM CET
Astronomical Twilight 5:26 AM CET 7:21 PM CET
Moon 5:47 AM CET (2/20) 4:34 PM CET (2/20)
Length of Visible Light 11h 45m
Length of Day
10h 48m
Waning Crescent, 2% of the Moon is Illuminated
Feb 20
Waning Crescent
Feb 21
New
Mar 1
First Quarter
Mar 8
Full
Mar 15
Last Quarter

Hourly Weather History & Observations

Time (CET) Temp. Windchill Dew Point Humidity Pressure Visibility Wind Dir Wind Speed Gust Speed Precip Events Conditions
12:15 AM 48.2 °F - 44.6 °F 87% 30.12 in 6.2 mi SSE 6.9 mph - N/A   Scattered Clouds
12:45 AM 48.2 °F - 44.6 °F 87% 30.12 in 6.2 mi SE 5.8 mph - N/A   Scattered Clouds
1:15 AM 48.2 °F - 44.6 °F 87% 30.12 in 4.3 mi SSE 17.3 mph 28.8 mph N/A Rain Light Rain
1:45 AM 48.2 °F - 44.6 °F 87% 30.12 in 5.6 mi SE 11.5 mph - N/A Rain Light Rain
2:15 AM 48.2 °F - 44.6 °F 87% 30.12 in 5.6 mi SSE 6.9 mph - N/A Rain Light Rain
2:45 AM 48.2 °F - 44.6 °F 87% 30.12 in 5.0 mi SE 8.1 mph - N/A Rain Light Rain
3:15 AM 48.2 °F - 44.6 °F 87% 30.12 in 3.7 mi SE 10.4 mph - N/A Rain Light Rain
3:45 AM 48.2 °F - 44.6 °F 87% 30.09 in 4.3 mi SE 6.9 mph - N/A Rain Light Rain
4:15 AM 48.2 °F - 44.6 °F 87% 30.09 in 4.3 mi SSE 8.1 mph - N/A Rain Light Rain
4:45 AM 46.4 °F 42.4 °F 44.6 °F 93% 30.09 in 5.6 mi East 8.1 mph - N/A   Scattered Clouds
5:15 AM 46.4 °F 42.4 °F 44.6 °F 93% 30.09 in 5.6 mi East 8.1 mph - N/A Rain , Thunderstorm Light Thunderstorms and Rain
5:45 AM 46.4 °F 44.3 °F 44.6 °F 93% 30.09 in 5.0 mi East 4.6 mph - N/A Rain , Thunderstorm Light Thunderstorms and Rain
6:15 AM 48.2 °F - 46.4 °F 93% 30.09 in 5.6 mi SSE 4.6 mph - N/A Rain , Thunderstorm Light Thunderstorms and Rain
6:45 AM 46.4 °F - 44.6 °F 93% 30.09 in 3.7 mi WSW 2.3 mph - N/A Rain , Thunderstorm Light Thunderstorms and Rain
7:15 AM 48.2 °F - 44.6 °F 87% 30.09 in 4.3 mi South 9.2 mph - N/A Rain , Thunderstorm Light Thunderstorms and Rain
7:45 AM 46.4 °F - 44.6 °F 93% 30.09 in 4.3 mi East 2.3 mph - N/A Rain Light Rain
8:15 AM 46.4 °F 44.3 °F 44.6 °F 93% 30.09 in 4.3 mi ENE 4.6 mph - N/A Rain Light Rain
8:45 AM 48.2 °F - 46.4 °F 93% 30.12 in 5.6 mi North 2.3 mph - N/A Rain Light Rain
9:15 AM 48.2 °F - 46.4 °F 93% 30.12 in 5.6 mi NE 2.3 mph - N/A Rain Light Rain
9:45 AM 48.2 °F - 46.4 °F 93% 30.12 in 6.2 mi North 2.3 mph - N/A Rain Light Rain
10:15 AM 48.2 °F - 48.2 °F 100% 30.12 in 6.2 mi NNW 2.3 mph - N/A   Mostly Cloudy
10:45 AM 50.0 °F - 46.4 °F 87% 30.12 in 6.2 mi NNE 1.2 mph - N/A   Mostly Cloudy
11:15 AM 51.8 °F - 46.4 °F 82% 30.12 in 6.2 mi ESE 2.3 mph - N/A Rain Light Rain
11:45 AM 51.8 °F - 46.4 °F 82% 30.12 in 6.2 mi SSE 3.5 mph - N/A Rain Light Rain
12:15 PM 53.6 °F - 46.4 °F 77% 30.12 in 6.2 mi SE 10.4 mph - N/A Rain Light Rain
12:45 PM 53.6 °F - 46.4 °F 77% 30.09 in 6.2 mi SE 10.4 mph - N/A   Mostly Cloudy
1:15 PM 53.6 °F - 46.4 °F 77% 30.09 in 6.2 mi SSE 12.7 mph - N/A   Mostly Cloudy
1:45 PM 51.8 °F - 44.6 °F 76% 30.09 in 6.2 mi SE 17.3 mph - N/A   Mostly Cloudy
2:15 PM 51.8 °F - 44.6 °F 76% 30.09 in 6.2 mi SE 16.1 mph - N/A   Mostly Cloudy
2:45 PM 51.8 °F - 44.6 °F 76% 30.09 in 6.2 mi SE 12.7 mph - N/A   Mostly Cloudy
3:15 PM 51.8 °F - 44.6 °F 76% 30.09 in 6.2 mi SE 15.0 mph - N/A   Scattered Clouds
3:45 PM 53.6 °F - 44.6 °F 72% 30.09 in 6.2 mi SE 10.4 mph - N/A   Mostly Cloudy
4:15 PM 51.8 °F - 42.8 °F 71% 30.09 in 6.2 mi SE 11.5 mph - N/A   Mostly Cloudy
4:45 PM 51.8 °F - 44.6 °F 76% 30.09 in 6.2 mi ESE 8.1 mph - N/A   Mostly Cloudy
5:15 PM 50.0 °F - 42.8 °F 76% 30.12 in 5.0 mi East 6.9 mph - N/A Rain Light Rain
5:45 PM 50.0 °F - 46.4 °F 87% 30.12 in 4.3 mi ESE 6.9 mph - N/A Rain Light Rain
6:15 PM 48.2 °F - 46.4 °F 93% 30.12 in 5.0 mi East 5.8 mph - N/A Rain Light Rain
6:45 PM 48.2 °F - 46.4 °F 93% 30.12 in 6.2 mi NE 4.6 mph - N/A   Mostly Cloudy
7:15 PM 48.2 °F - 44.6 °F 87% 30.12 in 6.2 mi Calm Calm - N/A   Mostly Cloudy
7:45 PM 48.2 °F - 42.8 °F 82% 30.12 in 6.2 mi ESE 6.9 mph - N/A   Mostly Cloudy
8:15 PM 48.2 °F - 44.6 °F 87% 30.15 in 6.2 mi East 9.2 mph - N/A   Scattered Clouds
8:45 PM 48.2 °F - 44.6 °F 87% 30.15 in 6.2 mi East 2.3 mph - N/A   Scattered Clouds
9:15 PM 48.2 °F - 44.6 °F 87% 30.15 in 6.2 mi East 9.2 mph - N/A   Scattered Clouds
9:45 PM 48.2 °F - 44.6 °F 87% 30.18 in 6.2 mi East 6.9 mph - N/A   Scattered Clouds
10:15 PM 48.2 °F - 44.6 °F 87% 30.18 in 6.2 mi East 11.5 mph - N/A   Scattered Clouds
10:45 PM 48.2 °F - 44.6 °F 87% 30.18 in 6.2 mi ESE 10.4 mph - N/A Rain Light Rain
11:15 PM 48.2 °F - 46.4 °F 93% 30.18 in 6.2 mi ENE 5.8 mph - N/A Rain Light Rain
11:45 PM 48.2 °F - 44.6 °F 87% 30.18 in 6.2 mi East 5.8 mph - N/A   Mostly Cloudy